ABS-2A (MONGOLSAT-1) (41588 NORAD) Tracking and Keplerian Element Data

This shows tracking and keplerian element data for the satellite.

Feedback or suggestion? Click here.




ElementValue
Catalog41588
NameABS-2A (MONGOLSAT-1)
Epoch Orbit1397
Epoch Day93.98660278
Epoch Year2020
RAAN208.3063
Inclination0.0188
Eccentricity0.0002415
Argument of Perigee91.1715
Mean Anonmoly322.1985
Mean Motion1.00268635
Decay Rate-9.2E-07
L11 41588U 16038A 20093.98660278 -.00000092 00000-0 00000+0 0 9995
L22 41588 0.0188 208.3063 0002415 91.1715 322.1985 1.00268635 13974

Live tracking and technical data element details for ABS-2A (MONGOLSAT-1) (NORAD 41588). ABS-2A (MONGOLSAT-1) can be tracked NOW for your location showing map with azimuth and elevation plus other details from your city location.

Track the satellite on the map from your city or location and see movement details for azimuth, elevation, latitude, longitude, range, height, and movement on the map or in text.







IsCatalogInMostPopularTable: catalog: 41588, numindb: 416
Update: records affected: 1



GetName: 41588 ABS-2A (MONGOLSAT-1)

Hit Count: updated at: Tue, 07 Apr 2020 23:48:52 GMT